Temperature
20 20 20 19 19 19 19 19 19 18 18 18 18 18 18 18 17 17 17 17 17 17 17 17 16 16 16 16 16 16 16 16 16 16 16 16 15 15 15 15 15 15 15
20 20 20 19 19 19 19 19 19 18 18 18 18 18 17 17 17 17 17 17 17 16 16 16 16 16 16 16 16 16 16 16 16 15 15 15 15 15 15 15 15 15 15
19 19 19 19 19 18 18 18 18 18 18 18 18 18 18 17 17 17 17 17 16 16 16 16 16 16 16 16 16 16 16 16 15 15 15 15 15 15 14 14 14 15 15
19 19 19 19 18 18 18 18 18 18 18 18 18 18 17 17 17 17 17 16 16 16 16 16 16 16 16 16 16 16 15 15 15 15 15 15 15 14 14 14 15 15 15
19 19 19 19 18 18 18 18 18 18 18 18 18 17 17 17 17 17 16 16 16 16 16 16 16 16 16 16 16 15 15 15 15 15 15 15 15 14 14 14 15 15 14
19 19 19 19 18 18 18 18 18 18 18 17 17 17 17 17 17 17 17 16 16 16 16 16 15 16 16 16 15 15 15 15 15 15 15 15 14 14 14 14 14 14 14
19 19 19 18 18 18 18 18 18 17 17 17 17 17 17 17 17 17 17 16 16 16 16 16 15 15 15 15 15 15 15 15 14 14 14 14 14 14 14 14 14 14 14
19 18 19 18 18 18 18 17 17 17 17 17 17 17 17 17 17 17 17 16 16 16 15 15 15 15 15 15 15 14 14 14 14 14 14 14 14 14 14 14 14 13 14
18 18 18 18 18 18 18 17 17 17 17 17 16 17 17 17 17 17 16 16 15 15 15 15 15 15 15 14 14 14 14 14 14 14 14 14 13 13 13 13 13 13 14
18 18 18 18 18 17 17 17 17 16 16 16 16 16 16 16 16 16 16 15 15 15 14 14 15 14 14 14 14 14 13 13 13 13 13 13 13 13 13 13 13 13 13
18 18 18 18 18 17 17 17 16 16 16 16 15 15 15 15 15 15 15 15 14 14 14 14 14 14 14 14 14 13 13 13 13 13 13 13 13 12 12 12 12 12 12
18 18 18 17 17 17 17 16 16 16 15 15 15 15 15 15 15 15 15 15 14 14 13 13 13 13 14 14 13 13 13 13 13 13 13 12 12 12 12 12 12 12 12
17 17 17 17 16 16 16 16 15 15 15 15 15 15 15 14 14 14 14 14 14 13 13 13 13 13 13 13 13 13 13 13 13 12 12 12 12 12 12 12 11 12 12
17 17 17 16 16 16 15 15 15 15 15 15 15 15 14 14 14 14 14 14 13 13 13 13 13 13 13 13 13 13 13 12 12 12 12 12 11 11 11 11 11 11 11
16 16 16 16 16 15 15 15 14 14 14 14 14 14 14 14 14 14 13 13 13 13 12 12 12 12 12 12 12 12 12 12 12 11 11 11 11 11 11 11 11 11 11
16 15 15 15 15 15 15 14 14 14 14 14 14 13 13 13 13 13 13 13 13 13 12 12 12 12 12 12 12 12 12 12 11 11 11 11 11 11 11 10 10 10 11
15 15 15 15 14 14 14 14 14 13 13 13 13 13 13 13 13 13 13 13 12 12 12 12 12 12 12 12 12 11 11 11 11 11 11 11 11 10 10 10 10 10 10
14 14 14 14 14 14 14 14 13 13 13 13 13 12 12 12 12 12 12 12 12 12 12 11 11 11 11 11 11 11 11 11 10 10 10 10 10 10 10 10 10 10 10
14 14 14 14 14 13 13 13 13 13 13 13 12 12 12 12 12 12 12 11 11 11 11 11 11 11 11 10 10 10 10 10 10 10 10 9 10 10 10 10 9 9 9
13 14 13 13 13 13 13 13 13 13 13 12 12 12 12 12 11 11 11 11 11 11 10 10 10 10 10 10 10 9 9 9 9 9 9 9 9 9 9 9 9 9 9
13 13 13 13 13 13 13 13 13 13 12 12 12 12 11 11 11 11 11 10 10 10 10 10 10 10 9 9 9 9 9 9 9 9 9 8 8 8 8 8 8 8 8
13 13 13 13 13 12 12 12 12 12 12 12 11 11 11 11 11 11 10 10 10 10 10 10 9 9 9 9 9 9 9 9 8 8 8 8 8 8 8 8 7 7 7
12 13 12 12 12 12 12 12 12 12 11 11 11 11 11 10 10 10 10 10 10 10 9 9 9 9 9 9 8 8 8 8 8 8 7 7 7 7 7 7 7 6 7
12 12 12 12 12 12 12 12 12 11 11 11 11 11 10 10 10 10 10 10 10 9 9 9 9 9 8 8 8 8 8 8 8 7 7 7 7 6 6 6 6 6 6
12 12 12 11 11 11 11 11 11 11 11 11 10 10 10 10 10 10 10 9 9 9 9 9 8 8 8 8 8 8 8 7 7 7 6 6 6 6 6 5 5 5 5
12 12 11 11 11 11 11 11 11 11 11 11 10 10 10 10 9 9 9 9 9 9 8 8 8 8 7 7 7 7 7 7 7 6 6 6 5 5 5 5 5 5 5
Wind_Speed
8 7 6 6 6 5 5 4 4 3 3 3 3 4 4 4 4 4 4 4 4 4 4 4 5 5 5 4 4 4 4 4 5 4 2 2 2 3 2 3 4 4 4
7 7 6 6 6 6 5 5 4 4 4 4 4 4 4 4 4 4 5 4 5 5 5 5 5 4 5 5 4 4 4 4 5 5 3 3 3 3 3 4 3 4 3
6 6 6 6 6 6 5 5 5 4 4 4 4 4 4 4 4 4 4 4 5 5 5 5 5 5 5 4 4 4 3 4 3 4 4 3 3 2 3 4 4 4 4
5 6 5 6 6 6 5 5 5 4 4 4 4 4 4 5 4 4 4 4 5 4 4 4 4 4 5 5 4 4 4 4 3 4 4 3 3 3 3 3 4 3 4
5 5 5 5 4 4 4 4 4 4 4 4 4 4 4 4 4 4 4 4 4 4 3 3 3 2 3 3 3 3 3 3 3 4 3 3 3 2 3 4 4 4 3
5 5 5 4 4 4 4 4 4 4 4 4 4 4 4 4 1 2 4 4 4 4 4 4 3 2 1 1 2 2 2 3 4 3 3 3 3 3 3 4 4 4 4
5 5 5 5 5 4 4 4 4 4 4 5 4 4 4 3 2 3 4 4 4 3 3 3 3 2 2 2 2 3 1 2 3 4 3 3 3 3 4 5 4 5 4
5 5 5 5 5 5 5 5 4 4 4 4 4 4 4 3 2 3 4 4 4 4 3 3 3 2 2 2 2 2 2 2 3 3 3 4 3 3 4 5 5 5 5
5 5 5 5 5 5 5 5 5 4 4 4 3 3 3 3 2 3 4 3 3 4 3 3 3 3 1 2 3 3 3 3 2 2 2 2 2 2 4 4 4 5 5
5 5 5 5 5 5 6 6 5 5 5 4 3 3 4 3 2 3 4 3 3 3 2 2 2 2 1 2 3 3 4 4 3 3 3 4 4 4 4 5 5 5 5
4 5 5 5 5 5 5 5 5 5 4 4 3 3 3 3 3 3 4 3 3 3 2 2 2 3 2 2 4 4 5 5 4 5 4 4 4 3 4 4 4 5 5
4 4 4 5 5 4 4 4 5 5 5 5 4 4 3 3 3 3 4 4 4 3 3 2 1 2 3 4 4 4 5 6 4 4 4 4 4 4 3 3 3 4 5
4 4 4 4 3 3 4 4 5 5 5 4 4 4 4 3 2 5 6 6 5 4 2 2 3 4 4 4 4 5 5 4 3 4 4 4 4 4 4 3 4 4 5
4 4 4 4 4 4 3 4 4 4 4 4 4 4 4 3 3 3 3 3 4 4 2 2 4 6 4 2 3 3 3 3 4 4 4 4 4 3 4 3 4 3 4
4 3 4 4 3 3 3 1 3 2 2 3 4 4 4 4 2 1 2 3 3 2 2 2 2 2 2 2 2 2 2 3 4 4 4 4 4 4 3 3 3 4 4
4 4 3 3 3 3 2 1 4 2 4 2 2 3 2 1 1 1 1 1 2 3 3 3 3 3 3 3 2 2 2 3 3 3 4 4 4 4 3 3 3 4 5
3 3 3 3 2 2 2 2 1 1 2 2 2 2 1 1 1 1 1 1 3 4 4 3 3 3 3 3 3 3 3 2 3 3 3 4 4 4 3 3 4 4 4
3 3 3 2 2 2 2 2 2 2 1 1 1 2 3 3 3 3 3 2 2 3 3 3 3 3 3 3 3 3 3 2 3 3 3 4 4 4 4 4 4 4 4
3 3 3 3 3 3 3 3 2 2 2 1 1 1 3 4 5 5 4 3 2 2 2 2 2 2 2 2 2 3 3 3 3 3 3 4 4 4 4 4 4 3 5
2 2 2 3 3 3 3 3 2 2 2 2 2 2 2 3 2 3 3 3 3 2 2 2 2 2 2 2 2 3 3 3 3 3 3 3 3 4 4 4 4 4 4
2 2 3 3 3 2 3 3 3 2 2 2 2 1 1 3 3 3 3 3 3 2 2 2 2 1 2 2 2 3 3 3 3 3 3 3 3 4 4 4 4 4 4
1 2 3 3 2 2 3 3 3 2 3 3 2 2 4 4 3 3 3 2 2 2 2 2 2 1 2 2 3 3 3 3 2 3 3 3 3 4 4 4 4 5 5
2 2 2 2 2 2 3 3 3 3 3 2 2 2 3 3 3 3 2 2 1 2 2 2 2 2 2 2 2 2 3 2 2 3 3 4 4 4 4 5 5 6 6
2 2 2 2 2 2 2 3 3 3 2 2 2 2 2 2 2 2 2 2 2 2 1 2 2 1 2 2 2 2 1 3 4 3 4 4 5 5 5 4 5 6 6
2 2 2 2 2 2 2 2 3 3 2 2 2 2 2 2 2 2 2 1 1 1 1 2 2 2 2 3 3 1 3 3 3 4 4 4 4 5 5 5 5 6 6
2 2 1 1 1 2 2 2 2 2 2 2 2 2 2 2 2 2 2 2 2 1 2 2 2 2 3 3 1 1 1 0 2 5 5 4 4 5 6 6 7 7 7
Wind_Direction
197 199 204 202 201 201 207 219 227 237 239 240 245 245 244 247 245 243 250 246 246 251 257 257 261 280 280 277 264 261 260 257 257 268 263 256 269 280 268 252 244 234 212
195 196 200 199 202 206 208 213 217 226 233 232 238 239 244 245 245 244 248 250 249 251 256 259 263 264 265 272 269 262 263 262 253 259 262 258 246 254 272 269 263 255 244
190 196 199 201 203 211 216 217 217 217 225 234 236 237 241 246 243 243 247 251 254 257 259 258 260 266 267 268 268 267 266 256 247 244 253 261 256 250 257 259 267 269 262
191 197 202 208 209 212 216 218 218 215 216 223 233 240 246 246 244 242 240 246 252 254 257 259 261 267 269 266 261 266 269 265 250 246 250 248 245 241 258 263 262 246 267
195 201 203 203 203 208 210 214 216 217 221 224 234 240 246 245 244 242 237 236 242 249 251 255 259 281 300 291 282 272 267 264 255 250 251 255 256 257 263 269 272 276 257
200 208 208 204 204 207 209 211 211 213 222 225 228 237 243 249 254 245 244 240 237 240 244 249 249 241 249 263 305 317 300 263 264 262 259 253 266 266 275 275 280 280 275
202 209 208 208 207 209 210 206 212 215 217 221 225 229 236 244 225 229 238 236 234 236 235 239 250 249 220 240 220 210 239 280 267 256 258 268 259 269 275 270 277 284 286
203 207 206 205 204 203 204 206 211 214 217 217 220 224 235 233 194 224 234 226 236 239 240 236 242 259 269 263 245 236 238 242 240 236 239 260 272 281 268 265 271 264 255
204 207 208 205 206 207 209 209 210 211 218 221 220 223 236 245 198 216 236 225 225 235 239 236 232 231 281 265 233 234 238 237 211 200 214 227 267 284 287 273 273 267 263
207 210 210 208 209 214 215 213 211 209 215 225 229 231 237 248 202 204 241 237 231 236 233 228 200 216 240 268 242 244 248 253 250 231 216 222 230 227 229 253 265 269 272
212 214 215 213 213 213 211 211 212 214 216 227 237 241 243 242 211 197 228 238 245 238 237 238 228 151 187 245 265 263 268 266 250 247 242 243 239 236 236 236 255 269 274
213 215 217 219 224 207 198 207 213 218 220 222 228 241 243 233 221 206 205 228 255 233 242 247 241 168 211 231 251 265 265 267 255 254 256 259 260 258 254 252 252 259 272
207 210 215 213 212 208 204 208 211 216 232 236 236 243 250 246 219 195 198 206 219 225 250 241 247 223 225 228 219 230 239 249 254 253 254 260 262 263 263 249 242 237 244
202 202 205 205 205 205 215 224 230 235 241 248 252 252 252 246 246 237 228 212 199 211 236 210 208 216 224 231 228 229 243 250 253 256 262 264 265 263 260 262 257 248 249
194 200 210 211 205 202 215 264 258 267 285 265 262 261 258 253 268 330 256 244 252 251 250 245 255 262 250 239 243 247 248 247 244 251 259 262 260 256 256 260 264 261 263
195 203 217 220 209 210 201 184 50 41 54 36 332 298 309 14 72 270 266 257 247 231 239 245 247 248 253 253 257 261 259 258 260 264 261 259 259 257 260 261 257 260 265
212 210 217 217 209 215 215 210 211 116 84 63 52 52 94 144 172 215 204 196 227 223 235 245 250 252 256 258 264 276 278 284 286 276 269 263 260 260 260 265 270 271 270
206 191 203 206 212 214 218 224 225 227 225 242 138 143 173 183 194 211 210 199 229 223 246 259 262 262 269 272 272 274 280 280 278 279 276 274 273 270 269 270 269 275 277
213 207 209 212 212 217 224 230 225 222 226 231 232 167 174 187 188 202 209 237 251 251 260 270 277 279 284 287 284 286 284 280 289 284 276 278 278 276 276 278 281 283 277
208 175 213 222 219 215 224 230 230 230 231 234 237 241 196 205 225 220 221 240 250 250 259 270 283 293 289 283 284 285 283 282 285 281 289 287 289 288 287 287 288 287 280
214 179 182 217 225 228 233 236 234 236 239 239 242 221 235 243 247 244 244 243 247 245 249 256 257 256 251 247 265 276 282 288 294 297 300 302 305 309 304 294 290 286 287
212 200 218 222 218 227 236 241 238 233 236 242 243 197 199 245 252 251 249 249 248 242 232 229 234 244 261 266 271 278 281 285 297 306 307 306 304 301 300 299 298 295 291
222 213 219 220 217 206 230 237 233 235 238 241 250 236 223 244 253 254 255 260 262 246 230 228 234 240 258 279 280 277 282 293 300 304 305 303 299 296 295 294 295 295 293
216 215 217 217 222 225 229 236 242 242 236 234 240 238 238 245 251 253 260 262 263 254 241 236 239 248 260 277 282 281 325 336 318 304 300 294 289 289 291 291 288 287 286
206 210 217 219 226 228 235 240 240 236 232 232 234 240 245 252 254 253 255 255 261 259 247 244 245 251 264 273 286 314 40 27 333 311 288 283 288 290 289 287 287 288 287
205 204 217 228 239 239 235 234 239 245 241 233 233 239 249 254 259 261 257 249 253 260 258 249 247 250 260 262 282 64 94 346 295 297 290 282 283 288 291 285 285 283 283
Height
1524 1525 1526 1527 1527 1528 1528 1529 1529 1529 1529 1529 1529 1529 1529 1529 1528 1528 1528 1527 1527 1527 1526 1526 1525 1524 1524 1524 1523 1522 1521 1521 1521 1521 1521 1520 1518 1518 1518 1517 1517 1516 1515
1522 1522 1523 1523 1524 1525 1525 1526 1526 1526 1526 1526 1526 1526 1526 1526 1526 1525 1525 1524 1524 1524 1523 1523 1522 1522 1521 1521 1520 1519 1518 1518 1518 1517 1517 1517 1516 1516 1515 1515 1515 1515 1514
1520 1520 1520 1520 1521 1522 1522 1523 1523 1523 1523 1523 1523 1523 1523 1523 1522 1522 1522 1522 1521 1521 1521 1520 1519 1519 1518 1517 1517 1516 1515 1515 1515 1515 1515 1515 1514 1514 1513 1513 1513 1512 1512
1517 1518 1518 1518 1518 1519 1519 1520 1520 1520 1520 1520 1520 1520 1520 1519 1519 1519 1518 1518 1518 1518 1517 1517 1516 1515 1515 1514 1514 1513 1513 1513 1513 1513 1512 1512 1512 1512 1511 1511 1511 1510 1509
1515 1515 1516 1516 1516 1516 1517 1517 1517 1517 1518 1518 1518 1517 1517 1517 1517 1516 1516 1516 1515 1515 1514 1514 1513 1512 1512 1511 1511 1511 1510 1510 1510 1510 1510 1510 1510 1510 1509 1509 1509 1508 1507
1512 1513 1513 1513 1513 1514 1514 1514 1514 1514 1515 1515 1515 1514 1514 1514 1514 1513 1513 1513 1512 1512 1511 1511 1510 1509 1509 1508 1508 1508 1508 1508 1508 1507 1507 1507 1507 1507 1507 1506 1506 1506 1505
1509 1510 1510 1510 1510 1510 1511 1511 1511 1512 1512 1512 1512 1511 1511 1511 1510 1510 1509 1509 1509 1508 1508 1507 1507 1507 1506 1506 1506 1505 1505 1505 1505 1505 1505 1504 1504 1504 1504 1503 1503 1503 1502
1506 1506 1507 1507 1507 1507 1507 1508 1508 1509 1509 1509 1508 1508 1508 1507 1507 1507 1507 1506 1506 1505 1505 1504 1504 1504 1504 1503 1503 1503 1502 1502 1502 1502 1502 1501 1502 1501 1501 1501 1500 1499 1498
1502 1503 1503 1503 1503 1503 1503 1504 1504 1505 1505 1505 1505 1505 1504 1504 1504 1504 1504 1503 1503 1502 1502 1501 1501 1501 1501 1501 1501 1500 1500 1500 1500 1499 1499 1498 1498 1498 1498 1498 1497 1497 1496
1499 1499 1500 1500 1500 1500 1500 1500 1501 1501 1502 1502 1502 1501 1501 1501 1501 1501 1500 1500 1500 1499 1499 1499 1498 1498 1498 1498 1498 1498 1498 1497 1497 1497 1496 1496 1495 1495 1494 1494 1494 1494 1494
1496 1496 1496 1497 1497 1497 1497 1497 1498 1499 1499 1499 1499 1498 1498 1497 1497 1497 1497 1497 1497 1496 1496 1496 1495 1495 1495 1495 1495 1495 1495 1495 1495 1495 1494 1493 1493 1492 1491 1491 1490 1491 1491
1492 1493 1493 1494 1495 1494 1494 1494 1495 1496 1496 1495 1496 1495 1495 1495 1494 1494 1493 1493 1493 1493 1493 1493 1493 1492 1492 1492 1492 1492 1492 1492 1492 1492 1491 1490 1490 1489 1489 1488 1487 1487 1486
1488 1489 1490 1491 1491 1491 1492 1492 1492 1493 1493 1493 1493 1493 1493 1492 1491 1490 1490 1490 1490 1490 1490 1490 1490 1490 1489 1489 1489 1488 1488 1488 1488 1488 1488 1487 1487 1486 1485 1484 1484 1483 1482
1485 1486 1487 1487 1487 1488 1489 1489 1489 1490 1490 1490 1490 1490 1489 1489 1488 1487 1487 1487 1487 1487 1487 1487 1487 1487 1486 1486 1486 1485 1485 1485 1485 1485 1484 1484 1483 1483 1482 1481 1481 1480 1480
1482 1483 1484 1484 1484 1484 1485 1486 1486 1486 1486 1486 1486 1486 1486 1486 1485 1484 1484 1483 1484 1484 1483 1484 1484 1485 1484 1484 1483 1483 1482 1482 1481 1481 1481 1480 1480 1479 1479 1478 1477 1477 1477
1479 1480 1481 1482 1482 1482 1482 1482 1482 1482 1482 1482 1482 1482 1481 1481 1481 1481 1481 1480 1480 1481 1481 1481 1481 1481 1481 1481 1481 1480 1479 1479 1479 1478 1478 1477 1477 1476 1475 1475 1474 1474 1473
1477 1478 1479 1479 1479 1479 1479 1480 1479 1479 1479 1479 1478 1478 1478 1478 1478 1478 1477 1477 1478 1478 1479 1478 1478 1478 1478 1478 1478 1477 1477 1477 1476 1476 1475 1475 1474 1473 1472 1472 1471 1471 1470
1475 1476 1476 1476 1477 1477 1477 1477 1477 1477 1477 1476 1476 1476 1475 1475 1475 1475 1475 1475 1475 1476 1476 1476 1476 1475 1475 1475 1475 1475 1474 1474 1473 1473 1473 1472 1471 1470 1469 1469 1468 1467 1467
1473 1474 1474 1474 1475 1475 1475 1476 1475 1475 1475 1475 1475 1474 1474 1473 1473 1473 1473 1473 1473 1473 1473 1473 1473 1473 1473 1473 1472 1472 1471 1470 1470 1470 1469 1468 1468 1467 1466 1466 1465 1464 1464
1471 1471 1472 1472 1473 1473 1474 1474 1473 1473 1473 1473 1472 1472 1472 1472 1471 1471 1471 1471 1471 1471 1471 1471 1471 1470 1470 1470 1470 1470 1470 1469 1467 1467 1466 1466 1465 1464 1463 1462 1462 1461 1461
1469 1469 1469 1470 1471 1471 1471 1472 1472 1471 1471 1471 1471 1471 1470 1470 1470 1470 1470 1469 1469 1469 1468 1468 1468 1468 1468 1468 1467 1467 1467 1466 1465 1464 1464 1463 1462 1461 1461 1460 1459 1458 1458
1466 1467 1467 1468 1469 1469 1469 1469 1469 1469 1469 1469 1469 1468 1468 1468 1468 1468 1467 1467 1466 1466 1466 1466 1466 1466 1466 1466 1465 1464 1464 1463 1463 1462 1461 1460 1460 1459 1458 1457 1457 1456 1455
1464 1464 1465 1466 1466 1466 1467 1467 1467 1467 1467 1467 1467 1467 1466 1466 1466 1465 1465 1465 1464 1464 1464 1464 1464 1464 1464 1463 1463 1462 1462 1461 1460 1459 1458 1458 1457 1457 1456 1455 1454 1453 1452
1462 1463 1464 1464 1465 1465 1465 1465 1465 1465 1465 1464 1464 1464 1464 1464 1464 1463 1463 1463 1462 1462 1462 1462 1462 1461 1461 1460 1460 1459 1459 1458 1457 1456 1455 1455 1454 1454 1453 1452 1451 1450 1449
1461 1461 1462 1462 1463 1463 1463 1463 1463 1463 1462 1462 1462 1462 1462 1462 1461 1461 1461 1460 1460 1460 1460 1459 1459 1458 1458 1457 1457 1456 1455 1455 1454 1453 1452 1452 1451 1450 1450 1449 1448 1447 1446
1459 1460 1460 1460 1460 1460 1460 1460 1460 1460 1460 1460 1460 1459 1459 1459 1459 1459 1458 1458 1457 1457 1457 1456 1456 1455 1455 1454 1453 1453 1452 1451 1451 1450 1449 1448 1448 1447 1446 1445 1444 1444 1443